Regional Weather Roundup
Issued by NWS Kansas City/Pleasant Hill, MO

Home | Current Version | Previous Version | Text Only | Print | Product List | Glossary On
Versions: 1 2 3 4 5 6 7 8 9 10 11 12 13 14 15 16 17 18 19 20 21 22 23 24 25 26 27 28
000
ASUS43 KEAX 172110
RWREAX

WEATHER ROUNDUP FOR EASTERN KANSAS AND NORTHWEST MISSOURI
NATIONAL WEATHER SERVICE KANSAS CITY/PLEASANT HILL MO
400 PM CDT TUE OCT 17 2017

KSZ040-057-103>105-MOZ028-029-037-043-172200-
...KANSAS CITY METROPOLITAN AREA...

CITY           SKY/WX    TMP DP  RH WIND       PRES   REMARKS
K.C. INTL      MOSUNNY   71  46  40 S17       30.09F
K.C. DOWNTOWN  MOSUNNY   72  45  37 S14       30.09F
LEES SUMMIT    SUNNY     71  46  40 S14G23    30.12F
OLATHE - IXD   SUNNY     71  46  40 S15G23    30.11F
OLATHE - OJC   SUNNY     69  46  43 S16G22    30.11F
LAWRENCE       SUNNY     73  47  39 S14G21    30.08F

$$

MOZ001>008-011>017-020>025-030>033-038>040-044>046-053-054-172200-
...NORTHERN AND CENTRAL MISSOURI...

CITY           SKY/WX    TMP DP  RH WIND       PRES   REMARKS
ST. JOSEPH     SUNNY     74  46  36 S14G21    30.06F
MOSBY          CLEAR     72  41  33 S10G18    30.10F
WARRENSBURG    SUNNY     70  43  37 S15       30.13F
WHITEMAN AFB   MOSUNNY   70  45  40 S16G23    30.10F
CLINTON        NOT AVBL
SEDALIA        SUNNY     71  44  37 SW14      30.16F
WARSAW         NOT AVBL
CHILLICOTHE      N/A     71  46  40 S12       30.11F
KIRKSVILLE     SUNNY     71  45  39 S12       30.13F

$$

MOZ041-047>049-056>058-063>065-088>090-097-172200-
...EASTERN AND SOUTHERN MISSOURI...

CITY           SKY/WX    TMP DP  RH WIND       PRES   REMARKS
ST. LOUIS INTL MOSUNNY   69  38  32 SE9       30.20F
SPIRIT OF STL  MOSUNNY   71  39  31 S8        30.19F
COLUMBIA       SUNNY     69  45  41 S14       30.17F
JEFFERSON CITY SUNNY     70  41  34 S12       30.16F
ROLLA          SUNNY     68  39  34 S9        30.20F
OSAGE BEACH    SUNNY     71  43  36 S12       30.18F
SPRINGFIELD    SUNNY     70  41  34 S8        30.18F
BRANSON        SUNNY     72  37  28 S7        30.21F
JOPLIN         SUNNY     70  45  40 S9        30.17F
WEST PLAINS    SUNNY     68  34  28 S6        30.23F

$$

IAZ060-094-KSZ022-034>040-054-083-096-NEZ052-066-093-172200-
...KANSAS...SOUTHEAST NEBRASKA AND IOWA...

CITY           SKY/WX    TMP DP  RH WIND       PRES   REMARKS
TOPEKA         SUNNY     75  46  35 S15G22    30.06F
MANHATTAN      SUNNY     76  48  37 SW12      30.04F
EMPORIA        SUNNY     74  43  32 S18G28    30.08F
CHANUTE        LGT RAIN  71  47  42 S18       30.13F
WICHITA        MOSUNNY   73  46  38 S18       30.08F
OMAHA          MOSUNNY   72  44  36 S10       30.01F
LINCOLN        SUNNY     73  46  38 S12       30.02F
FALLS CITY     SUNNY     73  45  36 S10       30.04F
LAMONI         SUNNY     71  45  39 S14       30.06F
DES MOINES     SUNNY     72  43  35 S17       30.04S

$$





USA.gov is the U.S. government's official web portal to all federal, state and local government web resources and services.